VK3AS Weather Reports


time (UTC)temp
C
wind
direction
speed
KPH
gust
KPH
rain 1hr
cm
rain 24hr
cm
rain mn
cm
humidity
%
barometer
mb
20260504050014 11 0.0 0.0 0.00 0.00 0.00 88 1010.3
20260504044530 11 0.0 0.0 0.00 0.00 0.00 87 1010.3
20260504043021 11 0.0 0.0 0.00 0.00 0.00 85 1010.2
20260504041529 11 0.0 0.0 0.00 0.00 0.00 84 1010.0
20260504040025 11 0.0 0.0 0.00 0.00 0.00 83 1010.0
20260504034512 11 360 1.6 6.4 0.00 0.00 0.00 86 1010.1
20260504033016 11 0.0 0.0 0.00 0.00 0.00 86 1010.2
20260504031532 11 0.0 0.0 0.00 0.00 0.00 85 1010.4
20260504030026 10 0.0 0.0 0.00 0.00 0.00 87 1010.6
20260504024518 10 0.0 0.0 0.00 0.00 0.00 86 1010.8
20260504023016 10 1.6 0.0 0.00 0.00 0.00 86 1010.9
20260504021528 10 3.2 0.0 0.00 0.03 0.00 86 1011.3
20260504020024 10 360 1.6 8.0 0.00 0.03 0.00 86 1011.4
20260504014525 10 360 1.6 9.7 0.00 0.05 0.00 86 1011.5
20260504013012 10 360 1.6 8.0 0.00 0.23 0.00 86 1011.7
20260504011516 10 49 1.6 11.3 0.00 0.28 0.00 85 1011.7
20260504010033 10 360 1.6 9.7 0.00 0.36 0.00 86 1011.7
20260504004528 10 360 1.6 8.0 0.00 0.61 0.00 85 1011.6
20260504003027 10 0.0 0.0 0.00 0.71 0.00 85 1011.5
20260504001515 9 360 3.2 6.4 0.00 1.04 0.00 86 1011.7
20260504000021 8 360 3.2 11.3 0.00 1.32 0.00 87 1011.6
20260503234525 8 360 1.6 6.4 0.00 1.45 0.00 88 1011.7
20260503233030 8 360 1.6 14.5 0.00 1.47 0.00 87 1011.8
20260503231518 8 360 1.6 6.4 0.00 1.47 0.00 87 1011.9
20260503230018 8 15 1.6 9.7 0.00 1.47 0.00 88 1011.8
20260503224523 8 360 3.2 14.5 0.00 2.21 0.00 88 1011.8
20260503223027 8 3.2 6.4 0.00 2.62 0.00 88 1011.6
20260503221532 8 360 1.6 4.8 0.00 2.62 0.00 87 1011.7
20260503220020 8 360 1.6 4.8 0.00 2.62 0.00 87 1011.7
20260503214517 8 360 1.6 9.7 0.00 2.62 0.00 86 1011.7
20260503213030 8 1.6 4.8 0.00 2.62 0.00 85 1011.6
20260503211525 8 0.0 6.4 0.00 2.62 0.00 85 1011.5
20260503210026 8 1.6 3.2 0.00 2.62 0.00 84 1011.5
20260503204523 8 0.0 0.0 0.00 2.62 0.00 83 1011.2
20260503203023 8 360 1.6 3.2 0.00 2.62 0.00 83 1011.2
20260503201530 8 0.0 9.7 0.00 2.62 0.00 82 1011.3
20260503200032 8 1.6 3.2 0.00 2.62 0.00 82 1011.3
20260503194530 8 360 0.0 4.8 0.00 2.67 0.00 81 1011.3
20260503193020 8 360 0.0 4.8 0.00 2.90 0.00 81 1011.1
20260503191526 8 360 0.0 4.8 0.00 3.17 0.00 80 1011.2
20260503190026 8 360 1.6 3.2 0.00 3.53 0.00 80 1011.3
20260503184529 8 360 1.6 8.0 0.00 3.76 0.00 80 1011.3
20260503183025 8 360 0.0 4.8 0.00 3.76 0.00 81 1011.4
20260503181536 8 360 0.0 3.2 0.00 3.78 0.00 81 1011.4
20260503180024 8 360 1.6 6.4 0.00 3.78 0.00 82 1011.5
20260503174511 8 360 0.0 4.8 0.00 3.78 0.00 81 1011.6
20260503173036 8 360 1.6 6.4 0.00 3.78 0.00 82 1011.7
20260503171520 8 360 0.0 8.0 0.00 3.78 0.00 81 1011.8
20260503081527 10 360 1.6 3.2 0.00 5.16 4.37 88 1012.4
20260503071509 11 0.0 0.0 0.00 5.16 4.37 88 1012.1
20260503054507 11 0.0 0.0 0.00 5.16 4.37 88 1012.0
20260503053009 11 0.0 0.0 0.00 5.16 4.37 88 1012.2
20260503051507 11 0.0 0.0 0.00 5.16 4.37 89 1012.1